User: anonymous   Login
Location: Asheville, NC
(35.6000°N, 82.5500°W)
Time: 02:30:46
(UTC-04:00)
Language:

ZACube-1 - Orbit

View from above orbital plane
View from above orbital plane
View from above satellite
View from above satellite

Ground track
Ground track

The orbit data is extracted from the following two-line orbital elements,

1 39417U 13066B   18198.58424072 +.00000140 +00000-0 +24025-4 0  9991
2 39417 097.5852 225.5970 0060433 056.5664 304.1308 14.80953843251293
Epoch (UTC): 17 July 2018 14:01:18
Eccentricity: 0.0060433
inclination: 97.5852°
perigee height: 584 km
apogee height: 668 km
right ascension of ascending node: 225.5970°
argument of perigee: 56.5664°
revolutions per day: 14.80953843
mean anomaly at epoch: 304.1308°
orbit number at epoch: 25129

The dashed part of the orbit path shows where the satellite is in the earth's shadow,  

DLR